| time (UTC) | temp F | wind direction | speed MPH | gust MPH | rain 1hr in | rain 24hr in | rain mn in | humidity % | barometer mb |
| 20260508213036 | 68 | 195 | 4.0 | 14.0 | 0.00 | 0.00 | 0.00 | 54 | 1006.2 |
| 20260508212528 | 67 | 202 | 2.0 | 4.0 | 0.00 | 0.00 | 0.00 | 53 | 1006.2 |
| 20260508212029 | 68 | 158 | 1.0 | 6.0 | 0.00 | 0.00 | 0.00 | 53 | 1006.4 |
| 20260508211541 | 68 | 290 | 2.0 | 6.0 | 0.00 | 0.00 | 0.00 | 52 | 1006.4 |
| 20260508211030 | 69 | 169 | 3.0 | 6.0 | 0.00 | 0.00 | 0.00 | 54 | 1006.5 |
| 20260508210530 | 68 | 214 | 2.0 | 7.0 | 0.00 | 0.00 | 0.00 | 60 | 1006.5 |
| 20260508210042 | 68 | 141 | 3.0 | 7.0 | 0.00 | 0.00 | 0.00 | 59 | 1006.5 |
| 20260508205529 | 68 | 158 | 3.0 | 5.0 | 0.00 | 0.00 | 0.00 | 58 | 1006.6 |
| 20260508205029 | 67 | 236 | 3.0 | 5.0 | 0.00 | 0.00 | 0.00 | 57 | 1006.6 |
| 20260508204544 | 66 | 195 | 2.0 | 3.0 | 0.00 | 0.00 | 0.00 | 60 | 1006.5 |
| 20260508204031 | 65 | 191 | 1.0 | 4.0 | 0.00 | 0.00 | 0.00 | 58 | 1006.6 |
| 20260508203529 | 65 | 204 | 1.0 | 4.0 | 0.00 | 0.00 | 0.00 | 58 | 1006.7 |
| 20260508203043 | 66 | 122 | 2.0 | 4.0 | 0.00 | 0.00 | 0.00 | 58 | 1006.8 |
| 20260508202529 | 66 | 248 | 1.0 | 4.0 | 0.00 | 0.00 | 0.00 | 59 | 1006.8 |
| 20260508202030 | 67 | 215 | 2.0 | 6.0 | 0.00 | 0.00 | 0.00 | 59 | 1007.0 |
| 20260508201539 | 67 | 176 | 2.0 | 7.0 | 0.00 | 0.00 | 0.00 | 56 | 1007.0 |
| 20260508201029 | 68 | 153 | 3.0 | 7.0 | 0.00 | 0.00 | 0.00 | 57 | 1007.1 |
| 20260508200529 | 68 | 238 | 3.0 | 7.0 | 0.00 | 0.00 | 0.00 | 57 | 1007.2 |
| 20260508200035 | 68 | 240 | 3.0 | 6.0 | 0.00 | 0.00 | 0.00 | 56 | 1007.2 |
| 20260508195529 | 69 | 152 | 1.0 | 5.0 | 0.00 | 0.00 | 0.00 | 57 | 1007.4 |
| 20260508195029 | 69 | 162 | 2.0 | 6.0 | 0.00 | 0.00 | 0.00 | 56 | 1007.5 |
| 20260508194541 | 69 | 0 | 1.0 | 6.0 | 0.00 | 0.00 | 0.00 | 55 | 1007.4 |
| 20260508194029 | 68 | 206 | 2.0 | 6.0 | 0.00 | 0.00 | 0.00 | 53 | 1007.5 |
| 20260508193531 | 68 | 256 | 2.0 | 5.0 | 0.00 | 0.00 | 0.00 | 54 | 1007.8 |
| 20260508193043 | 68 | 151 | 2.0 | 7.0 | 0.00 | 0.00 | 0.00 | 55 | 1007.7 |
| 20260508192529 | 68 | 340 | 3.0 | 7.0 | 0.00 | 0.00 | 0.00 | 53 | 1007.8 |
| 20260508192030 | 68 | 231 | 3.0 | 7.0 | 0.00 | 0.00 | 0.00 | 57 | 1007.7 |
| 20260508191542 | 68 | 203 | 1.0 | 6.0 | 0.00 | 0.00 | 0.00 | 57 | 1007.7 |
| 20260508191029 | 68 | 145 | 3.0 | 6.0 | 0.00 | 0.00 | 0.00 | 58 | 1007.8 |
| 20260508190530 | 67 | 216 | 2.0 | 5.0 | 0.00 | 0.00 | 0.00 | 56 | 1007.8 |
| 20260508190044 | 68 | 113 | 2.0 | 5.0 | 0.00 | 0.00 | 0.00 | 57 | 1007.9 |
| 20260508185530 | 67 | 116 | 2.0 | 5.0 | 0.00 | 0.00 | 0.00 | 60 | 1008.1 |
| 20260508185057 | 66 | 88 | 1.0 | 6.0 | 0.00 | 0.00 | 0.00 | 59 | 1008.0 |
| 20260508184542 | 66 | 144 | 1.0 | 6.0 | 0.00 | 0.00 | 0.00 | 59 | 1008.1 |
| 20260508184029 | 67 | 265 | 2.0 | 4.0 | 0.00 | 0.00 | 0.00 | 59 | 1008.2 |
| 20260508183529 | 67 | 181 | 1.0 | 5.0 | 0.00 | 0.00 | 0.00 | 58 | 1008.3 |
| 20260508183042 | 67 | 333 | 3.0 | 6.0 | 0.00 | 0.00 | 0.00 | 57 | 1008.3 |
| 20260508182530 | 68 | 156 | 2.0 | 7.0 | 0.00 | 0.00 | 0.00 | 59 | 1008.3 |
| 20260508182032 | 68 | 158 | 3.0 | 7.0 | 0.00 | 0.00 | 0.00 | 58 | 1008.3 |
| 20260508181553 | 68 | 214 | 1.0 | 5.0 | 0.00 | 0.00 | 0.00 | 62 | 1008.4 |
| 20260508181031 | 68 | 224 | 2.0 | 5.0 | 0.00 | 0.00 | 0.00 | 60 | 1008.6 |
| 20260508180529 | 67 | 148 | 2.0 | 5.0 | 0.00 | 0.00 | 0.00 | 60 | 1008.6 |
| 20260508180043 | 66 | 111 | 1.0 | 4.0 | 0.00 | 0.00 | 0.00 | 62 | 1008.5 |
| 20260508175529 | 66 | 127 | 1.0 | 4.0 | 0.00 | 0.00 | 0.00 | 64 | 1008.7 |
| 20260508175029 | 65 | 0 | 1.0 | 4.0 | 0.00 | 0.00 | 0.00 | 63 | 1008.8 |
| 20260508174551 | 66 | 150 | 2.0 | 4.0 | 0.00 | 0.00 | 0.00 | 63 | 1008.8 |
| 20260508174029 | 67 | 113 | 1.0 | 2.0 | 0.00 | 0.00 | 0.00 | 63 | 1008.9 |
| 20260508173530 | 66 | 214 | 0.0 | 3.0 | 0.00 | 0.00 | 0.00 | 62 | 1009.0 |
| 20260508173045 | 66 | 0 | 1.0 | 7.0 | 0.00 | 0.00 | 0.00 | 62 | 1009.0 |
| 20260508172531 | 66 | 202 | 1.0 | 7.0 | 0.00 | 0.00 | 0.00 | 64 | 1009.2 |
| 20260508172031 | 66 | 206 | 3.0 | 7.0 | 0.00 | 0.00 | 0.00 | 64 | 1009.2 |
| 20260508171545 | 66 | 144 | 1.0 | 4.0 | 0.00 | 0.00 | 0.00 | 65 | 1009.2 |
| 20260508171031 | 66 | 240 | 2.0 | 5.0 | 0.00 | 0.00 | 0.00 | 64 | 1009.4 |
| 20260508170530 | 66 | 173 | 2.0 | 5.0 | 0.00 | 0.00 | 0.00 | 67 | 1009.6 |
| 20260508170041 | 66 | 228 | 2.0 | 5.0 | 0.00 | 0.00 | 0.00 | 67 | 1009.5 |
| 20260508165529 | 65 | 212 | 2.0 | 5.0 | 0.00 | 0.00 | 0.00 | 67 | 1009.4 |
| 20260508165026 | 65 | 219 | 3.0 | 5.0 | 0.00 | 0.00 | 0.00 | 69 | 1009.6 |
| 20260508164540 | 65 | 7 | 1.0 | 5.0 | 0.00 | 0.00 | 0.00 | 70 | 1009.5 |
| 20260508164029 | 64 | 116 | 1.0 | 5.0 | 0.00 | 0.00 | 0.00 | 69 | 1009.8 |
| 20260508163529 | 63 | 168 | 2.0 | 6.0 | 0.00 | 0.00 | 0.00 | 71 | 1009.7 |
| 20260508163036 | 63 | 228 | 2.0 | 6.0 | 0.00 | 0.00 | 0.00 | 73 | 1009.9 |
| 20260508162529 | 63 | 148 | 2.0 | 4.0 | 0.00 | 0.00 | 0.00 | 73 | 1010.0 |
| 20260508162028 | 62 | 185 | 2.0 | 4.0 | 0.00 | 0.00 | 0.00 | 73 | 1010.1 |
| 20260508161542 | 62 | 143 | 1.0 | 3.0 | 0.00 | 0.00 | 0.00 | 74 | 1010.2 |
| 20260508161029 | 62 | 241 | 1.0 | 3.0 | 0.00 | 0.00 | 0.00 | 73 | 1010.1 |
| 20260508160531 | 62 | 207 | 1.0 | 5.0 | 0.00 | 0.00 | 0.00 | 73 | 1010.3 |
| 20260508160046 | 62 | 191 | 1.0 | 5.0 | 0.00 | 0.00 | 0.00 | 72 | 1010.2 |
| 20260508155529 | 62 | 179 | 1.0 | 5.0 | 0.00 | 0.00 | 0.00 | 73 | 1010.1 |
| 20260508155026 | 62 | 165 | 2.0 | 5.0 | 0.00 | 0.00 | 0.00 | 72 | 1010.4 |
| 20260508154543 | 62 | 223 | 0.0 | 4.0 | 0.00 | 0.00 | 0.00 | 72 | 1010.2 |
| 20260508154029 | 62 | 248 | 2.0 | 4.0 | 0.00 | 0.00 | 0.00 | 71 | 1010.3 |
| 20260508153529 | 62 | 131 | 1.0 | 4.0 | 0.00 | 0.00 | 0.00 | 74 | 1010.3 |
| 20260508153042 | 61 | 195 | 2.0 | 4.0 | 0.00 | 0.00 | 0.00 | 75 | 1010.5 |
| 20260508152529 | 62 | 228 | 1.0 | 4.0 | 0.00 | 0.00 | 0.00 | 74 | 1010.2 |
| 20260508152030 | 61 | 195 | 1.0 | 4.0 | 0.00 | 0.00 | 0.00 | 74 | 1010.5 |
| 20260508151544 | 61 | 240 | 1.0 | 3.0 | 0.00 | 0.00 | 0.00 | 75 | 1010.4 |
| 20260508151029 | 61 | 216 | 1.0 | 3.0 | 0.00 | 0.00 | 0.00 | 76 | 1010.6 |
| 20260508150532 | 60 | 209 | 1.0 | 3.0 | 0.00 | 0.00 | 0.00 | 77 | 1010.6 |
| 20260508150042 | 60 | 206 | 1.0 | 4.0 | 0.00 | 0.00 | 0.00 | 78 | 1010.6 |
| 20260508145530 | 60 | 259 | 1.0 | 4.0 | 0.00 | 0.00 | 0.00 | 75 | 1010.6 |
| 20260508145032 | 60 | 165 | 2.0 | 4.0 | 0.00 | 0.00 | 0.00 | 77 | 1010.5 |
| 20260508144545 | 60 | 128 | 1.0 | 4.0 | 0.00 | 0.00 | 0.00 | 77 | 1010.8 |
| 20260508144030 | 60 | 170 | 1.0 | 6.0 | 0.00 | 0.00 | 0.00 | 77 | 1010.7 |
| 20260508143531 | 60 | 155 | 1.0 | 6.0 | 0.00 | 0.00 | 0.00 | 76 | 1010.7 |
| 20260508143040 | 60 | 174 | 3.0 | 6.0 | 0.00 | 0.00 | 0.00 | 76 | 1010.7 |
| 20260508142529 | 61 | 156 | 2.0 | 5.0 | 0.00 | 0.00 | 0.00 | 78 | 1010.8 |
| 20260508142029 | 60 | 174 | 1.0 | 5.0 | 0.00 | 0.00 | 0.00 | 79 | 1010.8 |
| 20260508141608 | 60 | 126 | 1.0 | 4.0 | 0.00 | 0.00 | 0.00 | 79 | 1010.7 |
| 20260508141029 | 60 | 196 | 1.0 | 4.0 | 0.00 | 0.00 | 0.00 | 79 | 1010.6 |
| 20260508140530 | 60 | 236 | 1.0 | 4.0 | 0.00 | 0.00 | 0.00 | 79 | 1010.7 |
| 20260508140037 | 59 | 224 | 1.0 | 4.0 | 0.00 | 0.00 | 0.00 | 81 | 1010.7 |
| 20260508135529 | 58 | 158 | 2.0 | 4.0 | 0.00 | 0.00 | 0.00 | 82 | 1010.7 |
| 20260508135028 | 58 | 163 | 0.0 | 4.0 | 0.00 | 0.00 | 0.00 | 82 | 1010.8 |
| 20260508134554 | 57 | 148 | 1.0 | 4.0 | 0.00 | 0.00 | 0.00 | 84 | 1010.8 |
| 20260508134028 | 56 | 202 | 1.0 | 5.0 | 0.00 | 0.00 | 0.00 | 85 | 1010.8 |
| 20260508133530 | 56 | 182 | 2.0 | 5.0 | 0.00 | 0.00 | 0.00 | 84 | 1010.9 |
| 20260508133044 | 56 | 169 | 2.0 | 5.0 | 0.00 | 0.00 | 0.00 | 84 | 1010.9 |
| 20260508132529 | 56 | 141 | 1.0 | 4.0 | 0.00 | 0.00 | 0.00 | 84 | 1011.0 |
| 20260508132029 | 56 | 224 | 1.0 | 4.0 | 0.00 | 0.00 | 0.00 | 85 | 1011.0 |
| 20260508131547 | 55 | 206 | 1.0 | 4.0 | 0.00 | 0.00 | 0.00 | 84 | 1010.8 |
| 20260508131028 | 55 | 160 | 1.0 | 3.0 | 0.00 | 0.00 | 0.00 | 84 | 1010.8 |
| 20260508130530 | 55 | 156 | 0.0 | 1.0 | 0.00 | 0.00 | 0.00 | 86 | 1010.9 |
| 20260508130046 | 53 | 172 | 0.0 | 3.0 | 0.00 | 0.00 | 0.00 | 87 | 1010.8 |
| 20260508125526 | 53 | 202 | 1.0 | 3.0 | 0.00 | 0.00 | 0.00 | 85 | 1010.7 |
| 20260508125029 | 53 | 120 | 1.0 | 3.0 | 0.00 | 0.00 | 0.00 | 86 | 1010.8 |
| 20260508124545 | 52 | 105 | 0.0 | 2.0 | 0.00 | 0.00 | 0.00 | 87 | 1010.7 |
| 20260508124030 | 51 | 0 | 0.0 | 2.0 | 0.00 | 0.00 | 0.00 | 89 | 1010.8 |
| 20260508123529 | 50 | 94 | 0.0 | 2.0 | 0.00 | 0.00 | 0.00 | 91 | 1010.9 |
| 20260508123047 | 49 | 0 | 0.0 | 1.0 | 0.00 | 0.00 | 0.00 | 93 | 1010.8 |
| 20260508122528 | 49 | 0 | 0.0 | 1.0 | 0.00 | 0.00 | 0.00 | 93 | 1010.7 |
| 20260508122026 | 48 | 0 | 0.0 | 0.0 | 0.00 | 0.00 | 0.00 | 93 | 1010.8 |
| 20260508121541 | 48 | 0 | 0.0 | 1.0 | 0.00 | 0.00 | 0.00 | 93 | 1010.6 |
| 20260508121027 | 48 | 0 | 0.0 | 1.0 | 0.00 | 0.00 | 0.00 | 93 | 1010.7 |
| 20260508120530 | 48 | 0 | 0.0 | 1.0 | 0.00 | 0.00 | 0.00 | 93 | 1010.7 |
| 20260508120043 | 48 | 0 | 0.0 | 1.0 | 0.00 | 0.00 | 0.00 | 93 | 1010.7 |
| 20260508115529 | 48 | 0 | 0.0 | 0.0 | 0.00 | 0.00 | 0.00 | 93 | 1010.6 |
| 20260508115028 | 47 | 0 | 0.0 | 0.0 | 0.00 | 0.00 | 0.00 | 93 | 1010.6 |
| 20260508114541 | 47 | 0 | 0.0 | 0.0 | 0.00 | 0.00 | 0.00 | 93 | 1010.7 |
| 20260508114029 | 47 | 0 | 0.0 | 0.0 | 0.00 | 0.00 | 0.00 | 93 | 1010.7 |
| 20260508113529 | 47 | 0 | 0.0 | 0.0 | 0.00 | 0.00 | 0.00 | 93 | 1010.5 |
| 20260508113052 | 47 | 0 | 0.0 | 2.0 | 0.00 | 0.00 | 0.00 | 93 | 1010.7 |
| 20260508112526 | 47 | 0 | 0.0 | 2.0 | 0.00 | 0.00 | 0.00 | 93 | 1010.6 |
| 20260508112026 | 46 | 348 | 0.0 | 2.0 | 0.00 | 0.00 | 0.00 | 93 | 1010.5 |
| 20260508111540 | 46 | 0 | 0.0 | 1.0 | 0.00 | 0.00 | 0.00 | 93 | 1010.4 |
| 20260508111030 | 46 | 0 | 0.0 | 1.0 | 0.00 | 0.00 | 0.00 | 93 | 1010.5 |
| 20260508110530 | 46 | 226 | 0.0 | 1.0 | 0.00 | 0.00 | 0.00 | 93 | 1010.3 |
| 20260508110039 | 46 | 0 | 0.0 | 0.0 | 0.00 | 0.00 | 0.00 | 93 | 1010.3 |
| 20260508105529 | 46 | 0 | 0.0 | 0.0 | 0.00 | 0.00 | 0.00 | 93 | 1010.1 |
| 20260508105027 | 46 | 0 | 0.0 | 0.0 | 0.00 | 0.00 | 0.00 | 93 | 1010.1 |
| 20260508104541 | 46 | 0 | 0.0 | 0.0 | 0.00 | 0.00 | 0.00 | 93 | 1010.2 |
| 20260508104026 | 46 | 0 | 0.0 | 0.0 | 0.00 | 0.00 | 0.00 | 93 | 1010.2 |
| 20260508103527 | 45 | 0 | 0.0 | 0.0 | 0.00 | 0.00 | 0.00 | 93 | 1010.2 |
| 20260508103042 | 45 | 0 | 0.0 | 0.0 | 0.00 | 0.00 | 0.00 | 93 | 1010.5 |
| 20260508102530 | 45 | 0 | 0.0 | 1.0 | 0.00 | 0.00 | 0.00 | 93 | 1010.7 |
| 20260508102027 | 45 | 0 | 0.0 | 1.0 | 0.00 | 0.00 | 0.00 | 93 | 1010.7 |
| 20260508101541 | 45 | 211 | 0.0 | 1.0 | 0.00 | 0.00 | 0.00 | 92 | 1010.6 |
| 20260508101027 | 45 | 0 | 0.0 | 0.0 | 0.00 | 0.00 | 0.00 | 92 | 1010.7 |
| 20260508100528 | 45 | 0 | 0.0 | 0.0 | 0.00 | 0.00 | 0.00 | 92 | 1010.6 |
| 20260508100040 | 45 | 0 | 0.0 | 0.0 | 0.00 | 0.00 | 0.00 | 92 | 1010.5 |
| 20260508095528 | 45 | 0 | 0.0 | 0.0 | 0.00 | 0.00 | 0.00 | 92 | 1010.8 |
| 20260508095026 | 45 | 0 | 0.0 | 0.0 | 0.00 | 0.00 | 0.00 | 92 | 1010.8 |
| 20260508094541 | 45 | 0 | 0.0 | 0.0 | 0.00 | 0.00 | 0.00 | 92 | 1010.8 |
| 20260508094028 | 45 | 0 | 0.0 | 0.0 | 0.00 | 0.00 | 0.00 | 92 | 1010.5 |
| 20260508093528 | 45 | 0 | 0.0 | 0.0 | 0.00 | 0.00 | 0.00 | 92 | 1010.6 |
| 20260508093047 | 45 | 0 | 0.0 | 0.0 | 0.00 | 0.00 | 0.00 | 92 | 1010.8 |
| 20260508092528 | 45 | 0 | 0.0 | 0.0 | 0.00 | 0.00 | 0.00 | 92 | 1010.8 |
| 20260508092028 | 45 | 0 | 0.0 | 0.0 | 0.00 | 0.00 | 0.00 | 93 | 1010.8 |
| 20260508091549 | 45 | 0 | 0.0 | 0.0 | 0.00 | 0.00 | 0.00 | 93 | 1010.9 |
| 20260508091027 | 44 | 0 | 0.0 | 0.0 | 0.00 | 0.00 | 0.00 | 93 | 1010.9 |
| 20260508090527 | 44 | 0 | 0.0 | 0.0 | 0.00 | 0.00 | 0.00 | 93 | 1010.9 |
| 20260508090042 | 44 | 0 | 0.0 | 0.0 | 0.00 | 0.00 | 0.00 | 93 | 1011.0 |
| 20260508085526 | 44 | 0 | 0.0 | 0.0 | 0.00 | 0.00 | 0.00 | 93 | 1011.0 |
| 20260508085028 | 44 | 0 | 0.0 | 0.0 | 0.00 | 0.00 | 0.00 | 93 | 1011.1 |
| 20260508084535 | 44 | 0 | 0.0 | 0.0 | 0.00 | 0.00 | 0.00 | 93 | 1010.9 |
| 20260508084027 | 44 | 0 | 0.0 | 0.0 | 0.00 | 0.00 | 0.00 | 93 | 1010.8 |
| 20260508083528 | 43 | 0 | 0.0 | 0.0 | 0.00 | 0.00 | 0.00 | 93 | 1010.9 |
| 20260508083104 | 43 | 0 | 0.0 | 0.0 | 0.00 | 0.00 | 0.00 | 92 | 1010.9 |
| 20260508082528 | 43 | 0 | 0.0 | 0.0 | 0.00 | 0.00 | 0.00 | 91 | 1010.9 |
| 20260508082028 | 44 | 0 | 0.0 | 0.0 | 0.00 | 0.00 | 0.00 | 91 | 1010.9 |
| 20260508081541 | 44 | 0 | 0.0 | 0.0 | 0.00 | 0.00 | 0.00 | 91 | 1011.0 |
| 20260508081028 | 44 | 0 | 0.0 | 0.0 | 0.00 | 0.00 | 0.00 | 91 | 1011.0 |
| 20260508080530 | 44 | 0 | 0.0 | 0.0 | 0.00 | 0.00 | 0.00 | 91 | 1011.1 |
| 20260508080040 | 44 | 0 | 0.0 | 0.0 | 0.00 | 0.00 | 0.00 | 91 | 1011.0 |
| 20260508075527 | 44 | 0 | 0.0 | 0.0 | 0.00 | 0.00 | 0.00 | 90 | 1011.1 |
| 20260508075026 | 44 | 0 | 0.0 | 0.0 | 0.00 | 0.00 | 0.00 | 89 | 1011.1 |
| 20260508074549 | 45 | 0 | 0.0 | 0.0 | 0.00 | 0.00 | 0.00 | 89 | 1011.0 |
| 20260508074027 | 45 | 0 | 0.0 | 0.0 | 0.00 | 0.00 | 0.00 | 89 | 1011.1 |
| 20260508073531 | 46 | 0 | 0.0 | 0.0 | 0.00 | 0.00 | 0.00 | 89 | 1011.2 |
| 20260508073041 | 46 | 0 | 0.0 | 0.0 | 0.00 | 0.00 | 0.00 | 88 | 1011.3 |
| 20260508072528 | 46 | 0 | 0.0 | 1.0 | 0.00 | 0.00 | 0.00 | 88 | 1011.2 |
| 20260508072028 | 46 | 0 | 0.0 | 1.0 | 0.00 | 0.00 | 0.00 | 89 | 1011.3 |
| 20260508071543 | 46 | 0 | 0.0 | 0.0 | 0.00 | 0.00 | 0.00 | 89 | 1011.3 |
| 20260508071028 | 46 | 0 | 0.0 | 1.0 | 0.00 | 0.00 | 0.00 | 89 | 1011.3 |
| 20260508070527 | 46 | 0 | 0.0 | 1.0 | 0.00 | 0.00 | 0.00 | 89 | 1011.2 |
| 20260508070043 | 46 | 0 | 0.0 | 0.0 | 0.00 | 0.00 | 0.00 | 89 | 1011.4 |
| 20260508065527 | 46 | 0 | 0.0 | 2.0 | 0.00 | 0.00 | 0.00 | 89 | 1011.4 |
| 20260508065026 | 46 | 0 | 0.0 | 2.0 | 0.00 | 0.00 | 0.00 | 89 | 1011.4 |
| 20260508064544 | 46 | 0 | 0.0 | 0.0 | 0.00 | 0.00 | 0.00 | 89 | 1011.4 |
| 20260508064028 | 46 | 0 | 0.0 | 0.0 | 0.00 | 0.00 | 0.00 | 89 | 1011.4 |
| 20260508063527 | 46 | 0 | 0.0 | 0.0 | 0.00 | 0.00 | 0.00 | 88 | 1011.4 |
| 20260508063040 | 46 | 0 | 0.0 | 0.0 | 0.00 | 0.00 | 0.00 | 88 | 1011.4 |
| 20260508062529 | 46 | 0 | 0.0 | 0.0 | 0.00 | 0.00 | 0.00 | 89 | 1011.4 |
| 20260508062030 | 46 | 0 | 0.0 | 1.0 | 0.00 | 0.00 | 0.00 | 89 | 1011.4 |
| 20260508061543 | 46 | 0 | 0.0 | 1.0 | 0.00 | 0.00 | 0.00 | 89 | 1011.4 |
| 20260508061030 | 46 | 0 | 0.0 | 1.0 | 0.00 | 0.00 | 0.00 | 88 | 1011.6 |
| 20260508060530 | 46 | 0 | 0.0 | 0.0 | 0.00 | 0.00 | 0.00 | 89 | 1011.5 |
| 20260508060042 | 46 | 0 | 0.0 | 0.0 | 0.00 | 0.00 | 0.00 | 88 | 1011.5 |
| 20260508055533 | 46 | 0 | 0.0 | 0.0 | 0.00 | 0.00 | 0.00 | 87 | 1011.5 |
| 20260508055031 | 47 | 0 | 0.0 | 0.0 | 0.00 | 0.00 | 0.00 | 87 | 1011.5 |
| 20260508054542 | 47 | 0 | 0.0 | 0.0 | 0.00 | 0.00 | 0.00 | 86 | 1011.4 |
| 20260508054030 | 47 | 0 | 0.0 | 0.0 | 0.00 | 0.00 | 0.00 | 87 | 1011.6 |
| 20260508053530 | 47 | 0 | 0.0 | 1.0 | 0.00 | 0.00 | 0.00 | 86 | 1011.5 |
| 20260508053037 | 47 | 0 | 0.0 | 1.0 | 0.00 | 0.00 | 0.00 | 86 | 1011.4 |
| 20260508052533 | 47 | 0 | 0.0 | 1.0 | 0.00 | 0.00 | 0.00 | 86 | 1011.3 |
| 20260508052033 | 47 | 0 | 0.0 | 1.0 | 0.00 | 0.00 | 0.00 | 86 | 1011.3 |
| 20260508051541 | 47 | 0 | 0.0 | 1.0 | 0.00 | 0.00 | 0.00 | 85 | 1011.5 |
| 20260508051030 | 47 | 0 | 0.0 | 1.0 | 0.00 | 0.00 | 0.00 | 85 | 1011.3 |
| 20260508050530 | 48 | 0 | 0.0 | 1.0 | 0.00 | 0.00 | 0.00 | 84 | 1011.2 |
| 20260508050042 | 48 | 0 | 0.0 | 2.0 | 0.00 | 0.00 | 0.00 | 84 | 1011.2 |
| 20260508045536 | 48 | 0 | 0.0 | 2.0 | 0.00 | 0.00 | 0.00 | 84 | 1011.3 |
| 20260508045030 | 48 | 143 | 0.0 | 2.0 | 0.00 | 0.00 | 0.00 | 83 | 1011.2 |
| 20260508044545 | 48 | 0 | 0.0 | 1.0 | 0.00 | 0.00 | 0.00 | 83 | 1011.2 |
| 20260508044028 | 49 | 0 | 0.0 | 2.0 | 0.00 | 0.00 | 0.00 | 83 | 1011.4 |
| 20260508043532 | 49 | 0 | 0.0 | 2.0 | 0.00 | 0.00 | 0.00 | 82 | 1011.2 |
| 20260508043045 | 49 | 0 | 0.0 | 1.0 | 0.00 | 0.00 | 0.00 | 82 | 1011.4 |
| 20260508042531 | 49 | 0 | 0.0 | 1.0 | 0.00 | 0.00 | 0.00 | 82 | 1011.3 |
| 20260508042030 | 50 | 0 | 0.0 | 1.0 | 0.00 | 0.00 | 0.00 | 81 | 1011.3 |
| 20260508041544 | 50 | 38 | 0.0 | 2.0 | 0.00 | 0.00 | 0.00 | 80 | 1011.1 |
| 20260508041032 | 50 | 0 | 0.0 | 2.0 | 0.00 | 0.00 | 0.00 | 80 | 1011.2 |
| 20260508040531 | 50 | 29 | 0.0 | 1.0 | 0.00 | 0.00 | 0.00 | 80 | 1011.2 |
| 20260508040044 | 50 | 0 | 0.0 | 2.0 | 0.00 | 0.00 | 0.00 | 80 | 1011.0 |
| 20260508035531 | 50 | 0 | 0.0 | 2.0 | 0.00 | 0.00 | 0.00 | 79 | 1010.8 |
| 20260508035032 | 51 | 358 | 1.0 | 2.0 | 0.00 | 0.00 | 0.00 | 79 | 1010.7 |
| 20260508034544 | 51 | 236 | 0.0 | 2.0 | 0.00 | 0.00 | 0.00 | 79 | 1010.8 |
| 20260508034030 | 51 | 244 | 0.0 | 4.0 | 0.00 | 0.00 | 0.00 | 79 | 1010.8 |
| 20260508033529 | 51 | 240 | 1.0 | 4.0 | 0.00 | 0.00 | 0.00 | 78 | 1010.7 |
| 20260508033044 | 51 | 190 | 1.0 | 4.0 | 0.00 | 0.00 | 0.00 | 78 | 1010.7 |
| 20260508032529 | 51 | 0 | 1.0 | 4.0 | 0.00 | 0.00 | 0.00 | 78 | 1010.9 |
| 20260508032028 | 51 | 213 | 0.0 | 1.0 | 0.00 | 0.00 | 0.00 | 77 | 1010.7 |
| 20260508031541 | 51 | 220 | 0.0 | 3.0 | 0.00 | 0.00 | 0.00 | 76 | 1010.8 |
| 20260508031030 | 51 | 233 | 0.0 | 3.0 | 0.00 | 0.00 | 0.00 | 76 | 1010.8 |
| 20260508030530 | 51 | 205 | 1.0 | 3.0 | 0.00 | 0.00 | 0.00 | 75 | 1010.7 |
| 20260508030046 | 51 | 219 | 1.0 | 3.0 | 0.00 | 0.00 | 0.00 | 75 | 1010.7 |
| 20260508025532 | 52 | 214 | 0.0 | 2.0 | 0.00 | 0.00 | 0.00 | 73 | 1010.6 |
| 20260508025030 | 52 | 0 | 0.0 | 2.0 | 0.00 | 0.00 | 0.00 | 73 | 1010.6 |
| 20260508024541 | 52 | 219 | 1.0 | 2.0 | 0.00 | 0.00 | 0.00 | 73 | 1010.4 |
| 20260508024030 | 52 | 199 | 0.0 | 3.0 | 0.00 | 0.00 | 0.00 | 72 | 1010.4 |
| 20260508023530 | 52 | 0 | 0.0 | 3.0 | 0.00 | 0.00 | 0.00 | 72 | 1010.5 |
| 20260508023036 | 52 | 234 | 0.0 | 3.0 | 0.00 | 0.00 | 0.00 | 72 | 1010.5 |
| 20260508022531 | 52 | 235 | 0.0 | 3.0 | 0.00 | 0.00 | 0.00 | 71 | 1010.5 |
| 20260508022033 | 52 | 174 | 0.0 | 3.0 | 0.00 | 0.00 | 0.00 | 71 | 1010.4 |
| 20260508021548 | 51 | 229 | 0.0 | 3.0 | 0.00 | 0.00 | 0.00 | 71 | 1010.4 |
| 20260508021033 | 50 | 195 | 1.0 | 3.0 | 0.00 | 0.00 | 0.00 | 73 | 1010.5 |
| 20260508020530 | 49 | 233 | 0.0 | 3.0 | 0.00 | 0.00 | 0.00 | 77 | 1010.4 |
| 20260508020040 | 48 | 0 | 0.0 | 1.0 | 0.00 | 0.00 | 0.00 | 81 | 1010.3 |
| 20260508015530 | 47 | 0 | 0.0 | 0.0 | 0.00 | 0.00 | 0.00 | 81 | 1010.1 |
| 20260508015031 | 47 | 0 | 0.0 | 0.0 | 0.00 | 0.00 | 0.00 | 81 | 1010.1 |
| 20260508014543 | 48 | 0 | 0.0 | 0.0 | 0.00 | 0.00 | 0.00 | 80 | 1010.0 |
| 20260508014032 | 48 | 0 | 0.0 | 0.0 | 0.00 | 0.00 | 0.00 | 79 | 1010.0 |
| 20260508013530 | 48 | 0 | 0.0 | 0.0 | 0.00 | 0.00 | 0.00 | 79 | 1010.0 |
| 20260508013043 | 49 | 0 | 0.0 | 0.0 | 0.00 | 0.00 | 0.00 | 78 | 1009.8 |
| 20260508012530 | 49 | 0 | 0.0 | 0.0 | 0.00 | 0.00 | 0.00 | 77 | 1009.9 |
| 20260508012030 | 50 | 0 | 0.0 | 0.0 | 0.00 | 0.00 | 0.00 | 76 | 1009.8 |
| 20260508011538 | 50 | 0 | 0.0 | 0.0 | 0.00 | 0.00 | 0.00 | 75 | 1009.6 |
| 20260508011031 | 51 | 0 | 0.0 | 0.0 | 0.00 | 0.00 | 0.00 | 74 | 1009.7 |
| 20260508010530 | 52 | 0 | 0.0 | 0.0 | 0.00 | 0.00 | 0.00 | 73 | 1009.8 |
| 20260508010042 | 52 | 0 | 0.0 | 0.0 | 0.00 | 0.00 | 0.00 | 72 | 1009.7 |
| 20260508005530 | 53 | 0 | 0.0 | 1.0 | 0.00 | 0.00 | 0.00 | 70 | 1009.6 |
| 20260508005030 | 54 | 0 | 0.0 | 1.0 | 0.00 | 0.00 | 0.00 | 70 | 1009.7 |
| 20260508004542 | 54 | 356 | 0.0 | 1.0 | 0.00 | 0.00 | 0.00 | 69 | 1009.7 |
| 20260508004029 | 55 | 0 | 0.0 | 0.0 | 0.00 | 0.00 | 0.00 | 68 | 1009.6 |
| 20260508003529 | 55 | 0 | 0.0 | 0.0 | 0.00 | 0.00 | 0.00 | 67 | 1009.6 |
| 20260508003043 | 56 | 0 | 0.0 | 1.0 | 0.00 | 0.00 | 0.00 | 64 | 1009.5 |
| 20260508002529 | 57 | 0 | 0.0 | 1.0 | 0.00 | 0.00 | 0.00 | 63 | 1009.6 |
| 20260508002030 | 57 | 356 | 0.0 | 1.0 | 0.00 | 0.00 | 0.00 | 61 | 1009.6 |
| 20260508001540 | 58 | 0 | 0.0 | 1.0 | 0.00 | 0.00 | 0.00 | 58 | 1009.7 |
| 20260508001030 | 58 | 0 | 0.0 | 1.0 | 0.00 | 0.00 | 0.00 | 59 | 1009.6 |
| 20260508000530 | 58 | 356 | 0.0 | 1.0 | 0.00 | 0.00 | 0.00 | 59 | 1009.5 |
| 20260508000041 | 58 | 0 | 0.0 | 1.0 | 0.00 | 0.00 | 0.00 | 58 | 1009.6 |
| 20260507235530 | 59 | 316 | 0.0 | 2.0 | 0.00 | 0.00 | 0.00 | 57 | 1009.6 |
| 20260507235030 | 59 | 306 | 0.0 | 3.0 | 0.00 | 0.00 | 0.00 | 58 | 1009.7 |
| 20260507234544 | 59 | 0 | 0.0 | 3.0 | 0.00 | 0.00 | 0.00 | 59 | 1009.6 |
| 20260507234029 | 59 | 117 | 1.0 | 3.0 | 0.00 | 0.00 | 0.00 | 58 | 1009.6 |
| 20260507233530 | 59 | 0 | 1.0 | 4.0 | 0.00 | 0.00 | 0.00 | 58 | 1009.7 |
| 20260507233045 | 59 | 344 | 1.0 | 5.0 | 0.00 | 0.00 | 0.00 | 57 | 1009.7 |
| 20260507232530 | 59 | 288 | 2.0 | 5.0 | 0.00 | 0.00 | 0.00 | 58 | 1009.7 |
| 20260507232029 | 59 | 299 | 1.0 | 5.0 | 0.00 | 0.00 | 0.00 | 58 | 1009.8 |
| 20260507231547 | 59 | 329 | 1.0 | 4.0 | 0.00 | 0.00 | 0.00 | 59 | 1009.8 |
| 20260507231030 | 59 | 293 | 2.0 | 5.0 | 0.00 | 0.00 | 0.00 | 58 | 1009.8 |
| 20260507230530 | 59 | 297 | 1.0 | 5.0 | 0.00 | 0.00 | 0.00 | 57 | 1009.7 |
| 20260507230047 | 59 | 44 | 2.0 | 5.0 | 0.00 | 0.00 | 0.00 | 56 | 1009.7 |
| 20260507225533 | 59 | 337 | 2.0 | 6.0 | 0.00 | 0.00 | 0.00 | 55 | 1009.5 |
| 20260507225030 | 60 | 337 | 2.0 | 9.0 | 0.00 | 0.00 | 0.00 | 53 | 1009.5 |
| 20260507224545 | 62 | 356 | 3.0 | 11.0 | 0.00 | 0.00 | 0.00 | 50 | 1009.7 |
| 20260507224030 | 62 | 165 | 2.0 | 11.0 | 0.00 | 0.00 | 0.00 | 50 | 1009.5 |
| 20260507223531 | 62 | 198 | 4.0 | 9.0 | 0.00 | 0.00 | 0.00 | 51 | 1009.4 |
| 20260507223037 | 62 | 25 | 4.0 | 12.0 | 0.00 | 0.00 | 0.00 | 52 | 1009.3 |
| 20260507222530 | 62 | 169 | 4.0 | 12.0 | 0.00 | 0.00 | 0.00 | 52 | 1009.4 |
| 20260507222029 | 63 | 250 | 4.0 | 11.0 | 0.00 | 0.00 | 0.00 | 52 | 1009.6 |
| 20260507221541 | 63 | 302 | 5.0 | 12.0 | 0.00 | 0.00 | 0.00 | 52 | 1009.6 |
| 20260507221029 | 63 | 238 | 4.0 | 13.0 | 0.00 | 0.00 | 0.00 | 53 | 1009.5 |
| 20260507220530 | 63 | 25 | 5.0 | 13.0 | 0.00 | 0.00 | 0.00 | 52 | 1009.5 |
| 20260507220041 | 63 | 202 | 4.0 | 16.0 | 0.00 | 0.00 | 0.00 | 53 | 1009.7 |
| 20260507215530 | 63 | 205 | 3.0 | 16.0 | 0.00 | 0.00 | 0.00 | 55 | 1009.5 |
| 20260507215029 | 62 | 222 | 5.0 | 13.0 | 0.00 | 0.00 | 0.00 | 55 | 1009.6 |
| 20260507214602 | 61 | 336 | 3.0 | 13.0 | 0.00 | 0.00 | 0.00 | 57 | 1009.6 |
| 20260507214033 | 61 | 11 | 5.0 | 16.0 | 0.00 | 0.00 | 0.00 | 57 | 1009.8 |
| 20260507213531 | 61 | 253 | 7.0 | 16.0 | 0.00 | 0.00 | 0.00 | 58 | 1009.9 |